#timestamp,LO_Frequency,Hit,StdDev 
1695146415.9,286047000.6,N
1695146435.7,286047000.4,N
1695146455.6,286047002.6,N
1695146475.4,286047001.9,N
1695146495.3,286047000.5,N
1695146515.1,286047001.3,N
1695146516.0,286047001.3,N
1695146535.8,286047004.0,N
1695146555.7,286047001.8,N
1695146575.5,286047000.1,N
1695146595.3,286047002.4,N
1695146615.2,286047002.7,N
1695146635.0,286047000.0,N
1695146635.9,286047000.0,N
1695146655.8,286047000.2,N
1695146675.6,286047004.0,N
1695146695.4,286047001.7,N
1695146715.3,286047004.2,N
1695146735.1,286047002.0,N
1695146755.8,286047002.4,N
1695146775.7,286047001.9,N
1695146795.5,286047001.5,N
1695146815.4,286047002.1,N
1695146835.2,286047001.7,N
1695146855.0,286047003.6,N
1695146855.9,286047003.6,N
1695146875.8,286047003.8,N
1695146895.6,286047003.0,N
1695146915.4,286047002.4,N
1695146935.3,286047004.0,N
1695146955.1,286047002.9,N
1695146975.9,286047001.3,N
1695146995.7,286047002.5,N
1695147015.5,286047005.1,Y
1695147035.4,286047002.9,P
1695147055.2,286047004.4,P
1695147075.0,286047001.6,N
1695147075.9,286047001.6,N
1695147095.8,286047000.7,N
1695147115.6,286047000.8,N
1695147135.5,286046999.5,N
1695147155.3,286046997.9,N
1695147175.1,286046996.1,N
1695147195.9,286046994.2,N
1695147215.7,286046997.9,N
1695147235.5,286046999.4,N
1695147255.4,286047000.1,N
1695147275.2,286047000.7,N
1695147295.1,286046998.6,N
1695147296.0,286046998.6,N
1695147315.8,286046998.6,N
1695147335.6,286046999.3,N
1695147355.5,286046999.4,N
1695147375.3,286046999.1,N
1695147395.1,286046996.6,N
1695147415.9,286046997.3,N
1695147435.7,286046995.4,N
1695147455.6,286046993.6,N
1695147475.4,286046996.2,N
1695147495.2,286046994.5,N
1695147515.1,286046991.4,Y
1695147516.0,286046991.4,P
1695147535.8,286046994.4,N
1695147555.7,286046993.9,N
1695147575.5,286046995.3,N
1695147595.3,286047000.1,N
1695147615.2,286046998.3,N
1695147635.9,286047002.7,N
1695147655.7,286047002.9,N
1695147675.6,286047004.2,N
1695147695.4,286047003.7,N
1695147715.3,286047003.6,N
1695147735.1,286047001.4,N
1695147736.0,286047001.4,N
1695147755.8,286047000.7,N
1695147775.7,286047002.7,N
1695147795.5,286046999.7,N
1695147815.3,286047001.0,N
1695147835.2,286046996.9,N
1695147855.0,286046999.4,N
1695147855.9,286046999.4,N
1695147875.8,286046997.6,N
1695147895.6,286046999.2,N
1695147915.4,286046995.6,N
1695147935.3,286046993.4,N
1695147955.1,286046995.4,N
1695147975.9,286046997.8,N
1695147995.7,286046996.5,N
1695148015.5,286046997.1,N
1695148035.4,286046999.6,N
1695148055.2,286046999.5,N
1695148075.0,286046997.3,N
1695148075.9,286046997.3,N
1695148095.8,286046996.7,N
1695148115.6,286046999.5,N
1695148135.5,286046999.2,N
1695148155.3,286046998.4,N
1695148175.1,286046999.4,N
1695148195.9,286046996.5,N
1695148215.7,286047001.1,N
1695148235.5,286046995.4,N
1695148255.4,286046996.7,N
1695148275.2,286046996.6,N
1695148295.0,286046999.5,N
1695148296.0,286046999.5,N
1695148315.8,286046996.9,N
1695148335.6,286046995.5,N
1695148355.5,286046992.0,Y
1695148375.3,286046996.0,P
1695148395.1,286046994.9,P
1695148415.9,286046999.4,N
1695148435.7,286046997.1,N
1695148455.6,286046997.7,N
1695148475.4,286046998.9,N
1695148495.2,286047000.0,N
1695148515.1,286047002.1,N
1695148516.0,286047002.1,N
1695148535.8,286047000.5,N
1695148555.6,286046998.4,N
1695148575.5,286047000.6,N
1695148595.3,286047001.1,N
1695148615.2,286047002.2,N
1695148635.9,286047002.4,N
1695148655.7,286046999.7,N
1695148675.6,286047001.6,N
1695148695.4,286047000.0,N
1695148715.2,286047000.4,N
1695148735.1,286047000.5,N
1695148736.0,286047000.5,N
1695148755.8,286047001.2,N
1695148775.7,286046999.5,N
1695148795.5,286046999.0,N
1695148815.3,286046996.5,N
1695148835.2,286046999.6,N
1695148855.9,286046994.9,N
1695148875.7,286046996.5,N
1695148895.6,286046995.2,N
1695148915.4,286046996.7,N
1695148935.3,286046997.7,N
1695148955.1,286046997.4,N
1695148956.0,286046997.4,N
1695148975.8,286046997.9,N
1695148995.7,286046995.4,N
1695149015.5,286046997.5,N
1695149035.3,286046996.8,N
1695149055.2,286046995.3,N
1695149075.0,286046996.3,N
1695149075.9,286046996.3,N
1695149095.8,286046995.8,N
1695149115.6,286046998.0,N
1695149135.4,286046995.8,N
1695149155.3,286046995.0,N
1695149175.1,286046997.9,N
1695149195.8,286046997.3,N
1695149215.7,286046995.6,N
1695149235.5,286046994.3,Y
1695149255.4,286046996.2,P
1695149275.2,286046994.2,P
1695149295.0,286046994.7,P
1695149295.9,286046994.7,Y
1695149315.8,286047000.9,P
1695149335.6,286047000.3,N
1695149355.4,286046999.3,N
1695149375.3,286046999.3,N
1695149395.1,286046999.5,N
1695149415.9,286046994.9,Y
1695149435.7,286046995.9,P
1695149455.5,286046993.8,P
1695149475.4,286046996.2,N
1695149495.2,286046995.6,N
1695149515.0,286046997.9,N
1695149515.9,286046997.9,N
1695149535.8,286046997.5,N
1695149555.6,286046995.7,N
1695149575.5,286046996.0,N
1695149595.3,286046996.4,N
1695149615.1,286046996.2,N
1695149635.9,286046995.9,Y
1695149655.7,286046998.0,P
1695149675.5,286046993.3,P
1695149695.4,286046997.4,N
1695149715.2,286046996.5,N
1695149735.1,286046997.9,N
1695149736.0,286046997.9,N
1695149755.8,286046993.3,Y
1695149775.6,286046997.0,P
1695149795.5,286046997.7,P
1695149815.3,286046997.1,P
1695149835.2,286046995.6,Y
1695149855.9,286046999.4,P
1695149875.7,286046998.7,N
1695149895.6,286046998.8,N
1695149915.4,286046998.7,N
1695149935.2,286046998.2,N
1695149955.1,286046998.2,N
1695149956.0,286046998.2,N
1695149975.8,286046998.6,N
1695149995.7,286046996.6,Y
